WB0WNX Weather Reports


time (UTC)temp
C
wind
direction
speed
KPH
gust
KPH
rain 1hr
cm
rain 24hr
cm
rain mn
cm
humidity
%
barometer
mb
20260906190954 22 14 4.8 14.5 0.08 0.08 0.08 83 1017.0
20260906190453 22 39 22.5 38.6 0.08 0.08 0.08 80 1016.8
20260906185953 24 12 22.5 29.0 0.05 0.05 0.05 73 1017.2
20260906185453 26 338 11.3 12.9 0.00 0.00 0.00 78 1017.2
20260906184954 26 289 9.7 16.1 0.00 0.00 0.00 76 1017.2
20260906184453 26 301 11.3 16.1 0.00 0.00 0.00 76 1017.4
20260906183953 26 325 4.8 9.7 0.00 0.00 0.00 75 1017.1
20260906183454 26 318 8.0 9.7 0.00 0.00 0.00 75 1017.0
20260906182954 26 333 4.8 9.7 0.00 0.00 0.00 74 1016.7
20260906182454 27 321 8.0 9.7 0.00 0.00 0.00 74 1016.6
20260906181953 27 336 3.2 3.2 0.00 0.00 0.00 74 1016.6
20260906181454 27 262 1.6 3.2 0.00 0.00 0.00 74 1016.4
20260906180953 26 347 4.8 8.0 0.00 0.00 0.00 75 1016.4
20260906180453 26 322 4.8 8.0 0.00 0.00 0.00 75 1016.4
20260906175954 26 311 3.2 9.7 0.00 0.00 0.00 75 1016.4
20260906175454 26 307 8.0 11.3 0.00 0.00 0.00 76 1016.3
20260906174953 26 338 4.8 8.0 0.00 0.00 0.00 78 1016.4
20260906174453 26 296 3.2 4.8 0.00 0.00 0.00 78 1016.5
20260906173954 26 280 9.7 12.9 0.00 0.00 0.00 78 1016.5
20260906173454 26 280 11.3 16.1 0.00 0.00 0.00 78 1016.3
20260906172953 26 286 4.8 12.9 0.00 0.00 0.00 79 1016.3
20260906172453 26 263 11.3 19.3 0.00 0.00 0.00 78 1016.5
20260906171954 26 268 14.5 19.3 0.00 0.00 0.00 77 1016.4
20260906171454 26 278 9.7 14.5 0.00 0.00 0.00 77 1016.4
20260906170954 26 267 9.7 12.9 0.00 0.00 0.00 78 1016.4
20260906170453 26 252 4.8 4.8 0.00 0.00 0.00 78 1016.5
20260906165955 26 234 8.0 12.9 0.00 0.00 0.00 78 1016.6
20260906165454 26 259 9.7 11.3 0.00 0.00 0.00 78 1016.9
20260906164953 26 176 4.8 12.9 0.00 0.03 0.00 78 1016.9
20260906164453 26 210 9.7 11.3 0.00 0.03 0.00 78 1016.7
20260906163955 26 215 3.2 11.3 0.00 0.05 0.00 78 1016.5
20260906163454 26 243 3.2 8.0 0.00 0.08 0.00 78 1016.4
20260906162953 26 246 1.6 8.0 0.00 0.08 0.00 78 1016.4
20260906162455 26 188 3.2 8.0 0.00 0.08 0.00 78 1016.4
20260906161954 26 223 3.2 8.0 0.00 0.08 0.00 79 1016.5
20260906161454 26 195 8.0 9.7 0.00 0.08 0.00 79 1016.5
20260906160954 26 245 4.8 9.7 0.00 0.08 0.00 79 1016.4
20260906160453 26 170 4.8 8.0 0.00 0.08 0.00 80 1016.3
20260906155953 26 198 4.8 11.3 0.00 0.08 0.00 80 1016.2
20260906155736 26 216 9.7 12.9 0.00 0.08 0.00 80 1016.1
20260906155454 26 180 3.2 9.7 0.00 0.08 0.00 81 1016.1
20260906154953 26 201 11.3 24.1 0.00 0.08 0.00 80 1016.0
20260906154453 26 200 12.9 14.5 0.00 0.08 0.00 80 1016.0
20260906153955 26 187 4.8 9.7 0.00 0.08 0.00 80 1016.0
20260906153454 26 181 11.3 19.3 0.00 0.08 0.00 80 1016.1
20260906152954 26 181 4.8 12.9 0.00 0.08 0.00 81 1016.1
20260906152453 26 166 1.6 4.8 0.00 0.08 0.00 80 1016.0
20260906151954 26 196 4.8 11.3 0.00 0.08 0.00 81 1016.0
20260906151454 26 174 9.7 16.1 0.00 0.08 0.00 80 1015.9
20260906150953 26 188 4.8 4.8 0.00 0.08 0.00 80 1016.0
20260906150455 26 195 0.0 0.0 0.00 0.08 0.00 81 1016.0
20260906145954 25 161 3.2 16.1 0.00 0.08 0.00 81 1016.0
20260906145453 25 136 4.8 8.0 0.00 0.08 0.00 82 1016.0
20260906144954 25 164 3.2 9.7 0.00 0.08 0.00 82 1016.1
20260906144453 25 221 8.0 11.3 0.00 0.08 0.00 82 1016.2
20260906143953 25 250 12.9 20.9 0.00 0.08 0.00 82 1016.5
20260906143454 25 230 4.8 4.8 0.00 0.08 0.00 83 1015.9
20260906142954 25 193 8.0 11.3 0.00 0.08 0.00 83 1015.8
20260906142454 25 152 8.0 12.9 0.00 0.08 0.00 84 1015.8
20260906141953 25 132 8.0 9.7 0.00 0.08 0.00 85 1015.7
20260906141736 25 174 12.9 16.1 0.00 0.08 0.00 84 1015.7
20260906141454 25 151 9.7 22.5 0.00 0.08 0.00 85 1015.7
20260906140954 25 183 8.0 14.5 0.00 0.08 0.00 85 1015.7
20260906140453 25 170 8.0 14.5 0.00 0.08 0.00 85 1015.6
20260906135954 25 154 8.0 11.3 0.00 0.08 0.00 85 1015.5
20260906135735 25 169 8.0 14.5 0.00 0.08 0.00 85 1015.5
20260906135454 25 143 11.3 14.5 0.00 0.08 0.00 85 1015.5
20260906134953 25 185 9.7 19.3 0.00 0.08 0.00 86 1015.5
20260906134735 25 167 9.7 14.5 0.00 0.08 0.00 86 1015.6
20260906134453 25 156 12.9 19.3 0.00 0.10 0.00 86 1015.6
20260906133955 25 158 14.5 19.3 0.00 0.10 0.00 86 1015.8
20260906133454 25 175 12.9 19.3 0.00 0.10 0.00 87 1015.9
20260906132953 25 156 14.5 20.9 0.00 0.10 0.00 87 1015.8
20260906132735 25 162 14.5 22.5 0.00 0.10 0.00 88 1015.8
20260906132453 25 147 14.5 16.1 0.00 0.10 0.00 88 1015.7
20260906131954 25 154 12.9 14.5 0.00 0.10 0.00 88 1015.7
20260906131454 24 145 9.7 20.9 0.00 0.10 0.00 89 1015.7
20260906130954 24 134 9.7 19.3 0.00 0.10 0.00 89 1015.7
20260906130455 24 142 8.0 19.3 0.00 0.10 0.00 89 1015.7
20260906125954 24 182 4.8 8.0 0.00 0.10 0.00 90 1015.7
20260906125453 24 115 4.8 9.7 0.00 0.10 0.00 90 1015.6
20260906124954 24 153 8.0 11.3 0.00 0.10 0.00 90 1015.6
20260906124454 24 125 8.0 12.9 0.00 0.10 0.00 90 1015.6
20260906123953 24 127 11.3 12.9 0.00 0.10 0.00 90 1015.5
20260906123455 24 134 9.7 11.3 0.00 0.10 0.00 90 1015.5
20260906122954 24 138 4.8 11.3 0.00 0.10 0.00 90 1015.6
20260906122454 24 120 4.8 12.9 0.00 0.10 0.00 90 1015.6
20260906121955 24 162 4.8 8.0 0.00 0.10 0.00 90 1015.6
20260906121736 24 136 3.2 4.8 0.00 0.10 0.00 90 1015.6
20260906121454 24 172 9.7 9.7 0.00 0.10 0.00 90 1015.6
20260906120954 24 170 4.8 3.2 0.00 0.10 0.00 90 1015.5
20260906120738 24 137 3.2 11.3 0.00 0.10 0.00 90 1015.5
20260906120455 24 121 3.2 9.7 0.00 0.10 0.00 89 1015.5
20260906115954 24 106 4.8 8.0 0.00 0.13 0.00 89 1015.4
20260906115735 24 133 9.7 11.3 0.00 0.13 0.00 89 1015.3
20260906115453 24 93 4.8 8.0 0.00 0.13 0.00 89 1015.3
20260906114954 25 110 4.8 11.3 0.00 0.13 0.00 89 1015.3
20260906114735 24 90 8.0 11.3 0.00 0.13 0.00 89 1015.3
20260906114454 24 118 1.6 3.2 0.00 0.13 0.00 89 1015.2
20260906113953 25 134 4.8 8.0 0.00 0.13 0.00 89 1015.3
20260906113735 24 144 3.2 4.8 0.00 0.13 0.00 89 1015.2
20260906113454 25 134 8.0 12.9 0.00 0.13 0.00 89 1015.2
20260906112954 25 131 8.0 11.3 0.00 0.13 0.00 89 1015.1
20260906112455 24 97 4.8 8.0 0.00 0.20 0.00 89 1015.0
20260906111954 25 138 9.7 11.3 0.00 0.28 0.00 88 1015.0
20260906111738 25 150 4.8 8.0 0.00 0.28 0.00 88 1014.9
20260906111454 25 147 8.0 11.3 0.00 0.28 0.00 88 1014.9
20260906110954 25 145 8.0 11.3 0.00 0.28 0.00 88 1014.8
20260906110743 25 151 8.0 9.7 0.00 0.28 0.00 88 1014.9
20260906110455 25 149 8.0 11.3 0.00 0.28 0.00 88 1014.8
20260906105954 25 121 4.8 9.7 0.00 0.28 0.00 88 1014.8
20260906105739 25 133 3.2 11.3 0.00 0.28 0.00 88 1014.9
20260906105454 25 134 4.8 9.7 0.00 0.28 0.00 87 1014.8
20260906104955 25 123 4.8 12.9 0.00 0.28 0.00 87 1014.8
20260906104736 25 161 4.8 9.7 0.00 0.28 0.00 87 1014.9
20260906104453 25 157 8.0 9.7 0.00 0.28 0.00 87 1014.8
20260906103955 25 174 4.8 8.0 0.00 0.28 0.00 87 1014.8
20260906103738 25 146 8.0 12.9 0.00 0.28 0.00 87 1014.8
20260906103454 25 188 8.0 12.9 0.00 0.28 0.00 87 1014.8
20260906102955 25 153 8.0 12.9 0.00 0.28 0.00 87 1014.7
20260906102738 25 164 8.0 12.9 0.00 0.28 0.00 87 1014.7
20260906102454 25 149 12.9 16.1 0.00 0.28 0.00 87 1014.7
20260906101954 25 181 9.7 12.9 0.00 0.28 0.00 87 1014.8
20260906101736 25 152 8.0 11.3 0.00 0.28 0.00 87 1014.7
20260906101454 25 183 3.2 11.3 0.00 0.28 0.00 87 1014.8
20260906100954 25 186 8.0 11.3 0.00 0.28 0.00 86 1014.8
20260906100739 25 176 8.0 8.0 0.00 0.28 0.00 86 1014.7
20260906100455 25 136 8.0 11.3 0.00 0.28 0.00 86 1014.7
20260906095954 25 147 8.0 12.9 0.00 0.28 0.00 86 1014.7
20260906095454 25 168 9.7 12.9 0.00 0.28 0.00 87 1014.5
20260906094955 25 143 8.0 14.5 0.00 0.28 0.00 87 1014.5
20260906094737 25 156 3.2 9.7 0.00 0.28 0.00 87 1014.5
20260906094454 25 164 4.8 11.3 0.00 0.28 0.00 87 1014.5
20260906093954 25 177 4.8 9.7 0.00 0.28 0.00 87 1014.5
20260906093455 25 184 8.0 9.7 0.00 0.28 0.00 87 1014.7
20260906092955 25 138 8.0 11.3 0.00 0.28 0.00 87 1014.7
20260906092738 25 149 8.0 11.3 0.00 0.28 0.00 87 1014.7
20260906092455 25 157 4.8 8.0 0.00 0.28 0.00 86 1014.7
20260906091955 25 158 1.6 9.7 0.00 0.28 0.00 86 1014.8
20260906091454 25 136 8.0 11.3 0.00 0.28 0.00 86 1014.9
20260906090953 25 146 8.0 11.3 0.00 0.28 0.00 86 1014.9
20260906090737 25 173 4.8 11.3 0.00 0.28 0.00 86 1014.9
20260906090454 25 171 8.0 11.3 0.00 0.28 0.00 86 1014.9
20260906085953 25 196 4.8 9.7 0.00 0.28 0.00 86 1015.0
20260906085455 25 157 9.7 11.3 0.00 0.28 0.00 86 1015.1
20260906084954 25 179 8.0 8.0 0.00 0.28 0.00 86 1015.1
20260906084736 25 166 4.8 11.3 0.00 0.28 0.00 86 1015.2
20260906084454 25 165 8.0 11.3 0.00 0.28 0.00 86 1015.2
20260906083954 25 151 4.8 12.9 0.00 0.28 0.00 86 1015.2
20260906083740 25 194 4.8 11.3 0.00 0.28 0.00 86 1015.2
20260906083455 25 151 3.2 8.0 0.00 0.28 0.00 86 1015.1
20260906082954 25 155 4.8 4.8 0.00 0.28 0.00 86 1015.1
20260906082735 25 179 4.8 11.3 0.00 0.28 0.00 86 1015.1
20260906082455 25 187 8.0 11.3 0.00 0.28 0.00 86 1015.0
20260906081954 25 160 9.7 12.9 0.00 0.28 0.00 86 1014.9
20260906081454 25 149 4.8 9.7 0.00 0.28 0.00 86 1014.9
20260906080955 25 151 8.0 11.3 0.00 0.28 0.00 86 1014.8
20260906080454 25 171 9.7 12.9 0.00 0.28 0.00 86 1014.8
20260906075954 25 197 3.2 8.0 0.00 0.28 0.00 86 1014.8
20260906075737 25 152 9.7 14.5 0.00 0.28 0.00 86 1014.6
20260906075453 25 152 4.8 3.2 0.00 0.28 0.00 86 1014.5
20260906074954 25 155 4.8 8.0 0.00 0.28 0.00 86 1014.5
20260906074455 25 137 9.7 11.3 0.00 0.28 0.00 86 1014.5
20260906073955 25 150 8.0 11.3 0.00 0.28 0.00 86 1014.4
20260906073454 25 120 9.7 12.9 0.00 0.28 0.00 86 1014.5
20260906072954 25 125 4.8 9.7 0.00 0.28 0.00 86 1014.8
20260906072455 25 142 4.8 8.0 0.00 0.28 0.00 86 1014.9
20260906071954 25 195 3.2 3.2 0.00 0.28 0.00 86 1014.9
20260906071455 25 136 3.2 4.8 0.00 0.28 0.00 86 1015.0
20260906070954 25 127 3.2 3.2 0.00 0.28 0.00 86 1015.0
20260906070735 26 144 8.0 9.7 0.00 0.28 0.00 86 1015.0
20260906070455 25 120 3.2 4.8 0.00 0.28 0.00 86 1014.9
20260906065955 26 114 8.0 9.7 0.00 0.28 0.00 86 1014.9
20260906065740 25 111 9.7 9.7 0.00 0.28 0.00 86 1014.8
20260906065454 26 134 4.8 8.0 0.00 0.28 0.00 86 1014.9
20260906064955 25 135 9.7 9.7 0.00 0.28 0.00 86 1014.9
20260906064454 26 107 9.7 9.7 0.00 0.28 0.00 86 1015.0
20260906063954 26 114 4.8 9.7 0.00 0.28 0.00 85 1015.1
20260906063455 26 100 9.7 14.5 0.00 0.28 0.00 85 1015.0
20260906062955 26 116 4.8 9.7 0.00 0.28 0.00 85 1015.0
20260906062454 26 99 4.8 4.8 0.00 0.28 0.00 85 1015.0
20260906061955 26 106 8.0 11.3 0.00 0.28 0.00 85 1015.0
20260906061455 26 108 8.0 11.3 0.00 0.28 0.00 85 1015.1
20260906060955 26 123 8.0 9.7 0.00 0.28 0.00 85 1015.1
20260906060454 26 109 4.8 8.0 0.00 0.28 0.00 85 1015.1
20260906055955 26 112 8.0 9.7 0.00 0.28 0.00 85 1015.2
20260906055455 26 126 8.0 8.0 0.00 0.28 0.00 85 1015.2
20260906054954 26 119 4.8 8.0 0.00 0.28 0.00 85 1015.1
20260906054455 26 125 8.0 11.3 0.00 0.28 0.00 85 1015.1
20260906053955 26 120 3.2 8.0 0.00 0.28 0.00 85 1015.0
20260906053740 26 161 3.2 3.2 0.00 0.28 0.00 85 1015.0
20260906053454 26 142 3.2 3.2 0.00 0.28 0.00 85 1015.0
20260906052954 26 112 8.0 9.7 0.00 0.28 0.00 85 1014.9
20260906052455 26 113 8.0 9.7 0.00 0.28 0.00 85 1014.9
20260906051955 26 126 8.0 11.3 0.00 0.28 0.00 85 1014.9
20260906051454 26 116 8.0 11.3 0.00 0.28 0.00 86 1014.8
20260906050954 26 118 3.2 4.8 0.00 0.28 0.00 85 1014.9
20260906050455 26 102 3.2 4.8 0.00 0.28 0.00 86 1014.8
20260906045955 26 127 4.8 8.0 0.00 0.28 0.28 85 1014.8
20260906045455 26 213 0.0 0.0 0.00 0.28 0.28 84 1015.0
20260906044955 26 106 3.2 4.8 0.00 0.28 0.28 85 1015.0
20260906044455 26 92 8.0 9.7 0.00 0.28 0.28 85 1015.0
20260906043955 26 94 3.2 4.8 0.00 0.28 0.28 85 1015.0
20260906043454 26 118 4.8 4.8 0.00 0.28 0.28 85 1015.0
20260906042954 26 117 3.2 9.7 0.00 0.28 0.28 86 1015.0
20260906042454 26 117 4.8 8.0 0.00 0.28 0.28 86 1015.0
20260906041955 26 140 1.6 8.0 0.00 0.28 0.28 85 1015.0
20260906041455 26 96 1.6 3.2 0.00 0.28 0.28 85 1015.0
20260906040954 26 107 0.0 0.0 0.00 0.28 0.28 85 1015.1
20260906040454 26 87 0.0 0.0 0.00 0.28 0.28 86 1015.3
20260906035954 25 59 1.6 3.2 0.00 0.28 0.28 86 1015.3
20260906035454 25 7 3.2 4.8 0.00 0.28 0.28 85 1015.4
20260906034955 26 330 0.0 1.6 0.00 0.28 0.28 84 1015.3
20260906034454 26 326 0.0 0.0 0.00 0.28 0.28 84 1015.3
20260906033955 26 330 0.0 1.6 0.00 0.28 0.28 84 1015.3
20260906033456 26 23 1.6 1.6 0.00 0.28 0.28 83 1015.3
20260906032955 26 12 0.0 1.6 0.00 0.28 0.28 82 1015.2
20260906032455 26 41 0.0 0.0 0.00 0.28 0.28 82 1015.1
20260906031956 26 103 0.0 0.0 0.00 0.28 0.28 82 1015.1
20260906031454 26 100 8.0 9.7 0.00 0.28 0.28 82 1015.0
20260906030954 26 106 8.0 12.9 0.00 0.28 0.28 82 1015.0
20260906030455 26 88 4.8 11.3 0.00 0.28 0.28 82 1014.8
20260906025955 26 122 4.8 9.7 0.00 0.28 0.28 82 1014.8
20260906025455 26 120 9.7 9.7 0.00 0.28 0.28 81 1014.7
20260906024956 26 104 9.7 11.3 0.00 0.28 0.28 80 1014.6
20260906024455 26 105 11.3 11.3 0.00 0.28 0.28 80 1014.7
20260906023955 26 102 9.7 14.5 0.00 0.28 0.28 79 1014.7
20260906023454 27 96 11.3 14.5 0.00 0.28 0.28 79 1014.7
20260906022954 27 95 9.7 12.9 0.00 0.28 0.28 78 1014.7
20260906022454 27 86 9.7 12.9 0.00 0.28 0.28 77 1014.7
20260906021955 27 103 8.0 11.3 0.00 0.28 0.28 77 1014.6
20260906021455 27 102 11.3 12.9 0.00 0.28 0.28 77 1014.4
20260906020954 27 110 11.3 16.1 0.00 0.28 0.28 76 1014.4
20260906020456 27 120 9.7 11.3 0.00 0.28 0.28 76 1014.1
20260906015954 27 109 9.7 12.9 0.00 0.28 0.28 75 1014.2
20260906015454 27 106 9.7 14.5 0.00 0.28 0.28 75 1014.2
20260906014955 27 113 9.7 11.3 0.00 0.28 0.28 74 1014.1
20260906014456 27 105 11.3 14.5 0.00 0.28 0.28 74 1014.0
20260906013955 27 107 8.0 9.7 0.00 0.28 0.28 74 1014.0
20260906013455 27 117 9.7 11.3 0.00 0.28 0.28 73 1013.9
20260906012954 27 105 9.7 16.1 0.00 0.28 0.28 73 1013.9
20260906012454 27 104 9.7 14.5 0.00 0.28 0.28 72 1013.8
20260906011954 27 115 9.7 12.9 0.00 0.28 0.28 72 1013.7
20260906011455 27 115 9.7 11.3 0.00 0.28 0.28 72 1013.7
20260906010955 27 120 11.3 12.9 0.00 0.28 0.28 71 1013.8
20260906010455 27 117 9.7 14.5 0.00 0.28 0.28 71 1013.8
20260906005955 27 124 11.3 12.9 0.00 0.28 0.28 70 1013.7
20260906005455 28 134 9.7 11.3 0.00 0.28 0.28 70 1013.7
20260906004954 28 138 11.3 11.3 0.00 0.28 0.28 68 1013.8
20260906004455 28 127 11.3 14.5 0.00 0.28 0.28 68 1013.8
20260906003955 28 111 11.3 14.5 0.00 0.28 0.28 67 1013.8
20260906003453 28 120 9.7 12.9 0.00 0.28 0.28 66 1013.7
20260906002952 28 115 8.0 12.9 0.00 0.28 0.28 65 1013.7
20260906002454 29 106 4.8 9.7 0.00 0.28 0.28 64 1013.7
20260906001953 29 89 8.0 8.0 0.00 0.28 0.28 63 1013.6
20260906001452 29 107 12.9 14.5 0.00 0.28 0.28 62 1013.5
20260906000954 30 105 8.0 12.9 0.00 0.28 0.28 61 1013.5
20260906000455 30 112 12.9 14.5 0.00 0.28 0.28 60 1013.5
20260905235953 30 114 11.3 12.9 0.00 0.28 0.28 60 1013.5
20260905235453 30 104 16.1 20.9 0.00 0.28 0.28 59 1013.5
20260905234954 30 121 12.9 19.3 0.00 0.28 0.28 59 1013.6
20260905234453 30 108 9.7 12.9 0.00 0.28 0.28 58 1013.5
20260905233954 30 109 12.9 19.3 0.00 0.28 0.28 58 1013.5
20260905233453 30 123 11.3 12.9 0.00 0.28 0.28 57 1013.6
20260905232953 30 128 12.9 16.1 0.00 0.28 0.28 56 1013.5
20260905232453 31 132 12.9 16.1 0.00 0.28 0.28 56 1013.5
20260905231954 30 152 16.1 19.3 0.00 0.28 0.28 55 1013.3
20260905231454 30 133 19.3 20.9 0.00 0.28 0.28 54 1013.3
20260905230953 31 121 16.1 22.5 0.00 0.28 0.28 54 1013.2
20260905230452 31 145 14.5 22.5 0.00 0.28 0.28 53 1013.2
20260905225952 31 174 9.7 14.5 0.00 0.28 0.28 54 1013.2
20260905225454 31 157 11.3 24.1 0.00 0.28 0.28 53 1013.2
20260905224953 31 125 22.5 25.7 0.00 0.28 0.28 52 1013.1
20260905224453 31 142 16.1 24.1 0.00 0.28 0.28 51 1013.1
20260905223952 31 137 14.5 22.5 0.00 0.28 0.28 51 1013.1
20260905223454 31 129 12.9 20.9 0.00 0.28 0.28 51 1013.1
20260905222953 31 136 14.5 14.5 0.00 0.28 0.28 50 1012.9
20260905222453 31 133 14.5 16.1 0.00 0.28 0.28 50 1013.0
20260905221954 31 160 16.1 20.9 0.00 0.28 0.28 49 1012.9
20260905221454 31 132 16.1 22.5 0.00 0.28 0.28 48 1012.8
20260905220954 31 136 19.3 29.0 0.00 0.28 0.28 48 1012.8
20260905220454 31 114 14.5 25.7 0.00 0.28 0.28 48 1012.7
20260905215954 31 150 16.1 20.9 0.00 0.28 0.28 49 1012.7
20260905215453 31 132 22.5 33.8 0.00 0.28 0.28 48 1012.6
20260905214954 31 156 16.1 20.9 0.00 0.28 0.28 48 1012.6
20260905214454 32 151 22.5 29.0 0.00 0.28 0.28 48 1012.7
20260905213954 32 134 12.9 22.5 0.00 0.28 0.28 49 1012.6
20260905213453 31 140 20.9 32.2 0.00 0.28 0.28 49 1012.6
20260905212953 31 151 12.9 25.7 0.00 0.28 0.28 49 1012.7
20260905212452 31 144 16.1 32.2 0.00 0.28 0.28 48 1012.8
20260905211953 31 154 19.3 29.0 0.00 0.28 0.28 47 1012.9
20260905211454 32 178 12.9 24.1 0.00 0.28 0.28 47 1013.0
20260905210954 31 149 22.5 29.0 0.00 0.28 0.28 47 1012.9
20260905210453 31 148 19.3 32.2 0.00 0.28 0.28 47 1012.9
20260905205953 31 160 20.9 32.2 0.00 0.28 0.28 47 1012.9
20260905205454 31 158 22.5 35.4 0.00 0.28 0.28 46 1013.0
20260905204953 31 133 24.1 38.6 0.00 0.28 0.28 46 1012.9
20260905204455 31 150 22.5 25.7 0.00 0.28 0.28 48 1013.0
20260905203954 31 147 19.3 20.9 0.00 0.28 0.28 48 1012.9
20260905203453 31 146 12.9 22.5 0.00 0.28 0.28 50 1012.9
20260905202953 31 177 12.9 27.4 0.00 0.28 0.28 50 1012.9
20260905202453 31 155 11.3 24.1 0.00 0.28 0.28 50 1012.9
20260905201954 30 158 19.3 27.4 0.00 0.28 0.28 49 1012.9
20260905201454 31 180 16.1 25.7 0.00 0.28 0.28 47 1012.8
20260905200953 31 170 12.9 32.2 0.00 0.28 0.28 47 1012.9
20260905200454 31 158 16.1 27.4 0.00 0.28 0.28 44 1012.8
20260905195954 30 159 9.7 14.5 0.00 0.28 0.28 50 1013.0
20260905195454 30 114 4.8 11.3 0.00 0.28 0.28 52 1013.1
20260905194953 30 123 9.7 16.1 0.00 0.28 0.28 52 1013.1
20260905194454 30 117 8.0 12.9 0.00 0.28 0.28 51 1013.1
20260905193954 29 138 9.7 11.3 0.00 0.28 0.28 52 1013.0
20260905193453 28 146 14.5 20.9 0.00 0.28 0.28 53 1012.9
20260905192953 28 138 12.9 14.5 0.00 0.28 0.28 53 1012.7
20260905192453 28 134 11.3 19.3 0.00 0.28 0.28 54 1012.5
20260905191954 27 179 8.0 29.0 0.00 0.28 0.28 55 1012.4
20260905191735 27 128 12.9 22.5 0.00 0.28 0.28 55 1012.3
20260905191453 27 148 14.5 22.5 0.00 0.28 0.28 54 1012.2